JNA660 RKTH-RKSS

Flight info

Callsign JNA660
Flight time N/A
Altitude 24000
Route ELAPI Y685 GUKDO
Aircraft B738/M-SDE2FGHIM3RWY/LB1

Departure

Time 2026-05-01 08:48
Airport Pohang Airport (G-815/K-3) (RKTH)

Arrival

Time N/A
Airport Gimpo International Airport (RKSS)
Time Latitude Longitude Altitude Speed Heading
2026-05-01 08:21 35.98469 129.43339 66 ft 0 kts 178°
2026-05-01 08:37 35.98472 129.43339 60 ft 3 kts 178°
2026-05-01 08:38 35.98499 129.43338 63 ft 4 kts 175°
2026-05-01 08:38 35.98526 129.43334 68 ft 4 kts 172°
2026-05-01 08:38 35.98545 129.43331 63 ft 1 kts 171°
2026-05-01 08:38 35.98548 129.43330 66 ft 0 kts 171°
2026-05-01 08:40 35.98550 129.43333 68 ft 0 kts 90°
2026-05-01 08:44 35.98556 129.43466 66 ft 12 kts 73°
2026-05-01 08:44 35.98630 129.43496 69 ft 13 kts 348°
2026-05-01 08:44 35.98663 129.43444 69 ft 13 kts 274°
2026-05-01 08:44 35.98662 129.43298 69 ft 13 kts 270°
2026-05-01 08:45 35.98662 129.43248 70 ft 8 kts 270°
2026-05-01 08:45 35.98703 129.43176 67 ft 0 kts
2026-05-01 08:47 35.98706 129.43176 67 ft 3 kts
2026-05-01 08:47 35.98755 129.43177 68 ft 10 kts
2026-05-01 08:47 35.98801 129.43124 64 ft 0 kts 268°
2026-05-01 08:47 35.98800 129.43056 68 ft 26 kts 269°
2026-05-01 08:48 35.98797 129.42498 73 ft 103 kts 270°
2026-05-01 08:48 35.98783 129.41340 141 ft 159 kts 270°
2026-05-01 08:48 35.98778 129.39984 1013 ft 151 kts 273°
2026-05-01 08:48 35.98769 129.38699 1931 ft 150 kts 274°
2026-05-01 08:49 35.98758 129.37409 2832 ft 150 kts 274°
2026-05-01 08:49 35.98747 129.36129 3665 ft 154 kts 275°
2026-05-01 08:49 35.98742 129.34661 4008 ft 187 kts 275°
2026-05-01 08:49 35.98733 129.32948 4245 ft 213 kts 274°
2026-05-01 08:50 35.98812 129.31061 4656 ft 224 kts 289°
2026-05-01 08:50 35.99562 129.29415 5336 ft 225 kts 312°
2026-05-01 08:50 36.00861 129.28225 5835 ft 239 kts 333°
2026-05-01 08:50 36.02376 129.27321 5968 ft 241 kts 334°
2026-05-01 08:51 36.03900 129.26429 5993 ft 243 kts 334°
2026-05-01 08:51 36.05435 129.25531 5995 ft 245 kts 334°
2026-05-01 08:51 36.06978 129.24624 6001 ft 246 kts 334°
2026-05-01 08:51 36.08378 129.23531 6415 ft 248 kts 314°
2026-05-01 08:52 36.09420 129.21811 7329 ft 252 kts 310°
2026-05-01 08:52 36.10466 129.20062 8307 ft 253 kts 311°
2026-05-01 08:52 36.11528 129.18302 9219 ft 258 kts 312°
2026-05-01 08:52 36.12611 129.16509 10078 ft 262 kts 312°
2026-05-01 08:53 36.13732 129.14656 10608 ft 280 kts 312°
2026-05-01 08:53 36.14963 129.12632 10807 ft 308 kts 312°